BOLT02 EGCC-EGXC

Flight info

Callsign BOLT02
Flight time 0h 55m
Altitude 9000
Route TNT DCT WIT DCT CGY
Aircraft F35/M-SBDGRY/S

Departure

Time 2026-04-22 22:55
Airport Manchester Airport (EGCC)

Arrival

Time 2026-04-22 23:50
Airport RAF Coningsby (EGXC)
Time Latitude Longitude Altitude Speed Heading
2026-04-22 22:44 53.35591 -2.28137 231 ft 0 kts 166°
2026-04-22 22:49 53.35566 -2.28131 231 ft 10 kts 181°
2026-04-22 22:49 53.35449 -2.28151 231 ft 23 kts 193°
2026-04-22 22:50 53.35259 -2.28260 226 ft 34 kts 221°
2026-04-22 22:50 53.35106 -2.28562 224 ft 34 kts 231°
2026-04-22 22:50 53.34966 -2.28745 223 ft 11 kts 144°
2026-04-22 22:50 53.34956 -2.28730 224 ft 0 kts 140°
2026-04-22 22:53 53.34914 -2.28673 224 ft 18 kts 140°
2026-04-22 22:53 53.34862 -2.28554 225 ft 0 kts 51°
2026-04-22 22:53 53.34868 -2.28542 225 ft 4 kts 51°
2026-04-22 22:53 53.34869 -2.28540 226 ft 0 kts 51°
2026-04-22 22:54 53.34875 -2.28527 226 ft 22 kts 52°
2026-04-22 22:54 53.35510 -2.27209 299 ft 249 kts 51°
2026-04-22 22:55 53.35566 -2.24563 646 ft 255 kts 124°
2026-04-22 22:55 53.34488 -2.22267 1195 ft 251 kts 133°
2026-04-22 22:55 53.31524 -2.19139 1737 ft 260 kts 146°
2026-04-22 22:56 53.29913 -2.17647 1883 ft 268 kts 146°
2026-04-22 22:56 53.28200 -2.16401 2065 ft 270 kts 154°
2026-04-22 22:56 53.26401 -2.15669 2243 ft 261 kts 158°
2026-04-22 22:56 53.24817 -2.14450 2293 ft 248 kts 143°
2026-04-22 22:57 53.23828 -2.13480 2340 ft 248 kts 143°
2026-04-22 22:57 53.22481 -2.11777 2408 ft 237 kts 124°
2026-04-22 22:57 53.21674 -2.08436 2642 ft 388 kts 100°
2026-04-22 22:57 53.21536 -2.04062 2531 ft 375 kts 91°
2026-04-22 22:58 53.21141 -1.99773 2457 ft 375 kts 108°
2026-04-22 22:58 53.19885 -1.95987 2445 ft 376 kts 117°
2026-04-22 22:58 53.19009 -1.91856 2336 ft 377 kts 101°
2026-04-22 22:58 53.18689 -1.87529 2419 ft 373 kts 90°
2026-04-22 22:59 53.18906 -1.83209 2412 ft 375 kts 79°
2026-04-22 22:59 53.19598 -1.79015 2445 ft 374 kts 73°
2026-04-22 22:59 53.20291 -1.74827 2437 ft 375 kts 76°
2026-04-22 22:59 53.20937 -1.70611 2469 ft 375 kts 76°
2026-04-22 23:00 53.21583 -1.66412 3158 ft 375 kts 76°
2026-04-22 23:00 53.21877 -1.62087 3985 ft 379 kts 92°
2026-04-22 23:00 53.21647 -1.58037 4661 ft 323 kts 97°
2026-04-22 23:00 53.21332 -1.54633 5384 ft 292 kts 99°
2026-04-22 23:01 53.20978 -1.51302 6173 ft 294 kts 99°
2026-04-22 23:01 53.20644 -1.47900 6977 ft 298 kts 98°
2026-04-22 23:01 53.20178 -1.44497 7751 ft 303 kts 115°
2026-04-22 23:01 53.18773 -1.41908 8832 ft 284 kts 145°
2026-04-22 23:02 53.17035 -1.40145 12473 ft 296 kts 147°
2026-04-22 23:02 53.15224 -1.38342 16953 ft 308 kts 147°
2026-04-22 23:02 53.13339 -1.36471 22680 ft 323 kts 149°
2026-04-22 23:02 53.11310 -1.34483 28673 ft 423 kts 151°
2026-04-22 23:03 53.08418 -1.31724 30065 ft 520 kts 155°
2026-04-22 23:03 53.05108 -1.29822 29655 ft 491 kts 171°
2026-04-22 23:03 53.01727 -1.28213 29439 ft 571 kts 163°
2026-04-22 23:03 52.97674 -1.25841 29356 ft 646 kts 161°
2026-04-22 23:04 52.93271 -1.23112 29358 ft 720 kts 161°
2026-04-22 23:04 52.88325 -1.19996 29337 ft 802 kts 160°
2026-04-22 23:04 52.82833 -1.16530 29286 ft 873 kts 160°
2026-04-22 23:04 52.77435 -1.13123 29328 ft 883 kts 160°
2026-04-22 23:05 52.65919 -1.05862 29222 ft 887 kts 160°
2026-04-22 23:05 52.54385 -0.98621 29269 ft 882 kts 160°
2026-04-22 23:06 52.42987 -0.91493 29291 ft 872 kts 160°
2026-04-22 23:06 52.31691 -0.84461 29306 ft 864 kts 160°
2026-04-22 23:07 52.20563 -0.77558 29276 ft 859 kts 160°
2026-04-22 23:07 52.09415 -0.70666 29267 ft 855 kts 160°
2026-04-22 23:08 51.98049 -0.66114 30114 ft 829 kts 180°
2026-04-22 23:08 51.92344 -0.66334 30945 ft 812 kts 187°
2026-04-22 23:08 51.86748 -0.67179 31584 ft 803 kts 189°
2026-04-22 23:09 51.81199 -0.68218 31828 ft 801 kts 190°
2026-04-22 23:09 51.75667 -0.69341 31922 ft 802 kts 190°
2026-04-22 23:09 51.64583 -0.71752 31945 ft 802 kts 194°
2026-04-22 23:10 51.59260 -0.74260 31996 ft 793 kts 206°
2026-04-22 23:10 51.54439 -0.78415 32141 ft 782 kts 218°
2026-04-22 23:10 51.50372 -0.83943 32403 ft 769 kts 231°
2026-04-22 23:10 51.47142 -0.90664 32655 ft 758 kts 242°
2026-04-22 23:11 51.44895 -0.98220 32691 ft 750 kts 253°
2026-04-22 23:11 51.43384 -1.06240 32645 ft 750 kts 258°
2026-04-22 23:11 51.40980 -1.22538 32597 ft 754 kts 260°
2026-04-22 23:12 51.39002 -1.39093 32568 ft 757 kts 263°
2026-04-22 23:12 51.37383 -1.55796 32548 ft 760 kts 265°
2026-04-22 23:13 51.36329 -1.72624 32558 ft 762 kts 267°
2026-04-22 23:13 51.35425 -1.89561 32535 ft 762 kts 262°
2026-04-22 23:14 51.34355 -1.97290 32549 ft 660 kts 256°
2026-04-22 23:14 51.33130 -2.03830 32514 ft 568 kts 255°
2026-04-22 23:14 51.31982 -2.09348 32215 ft 494 kts 253°
2026-04-22 23:14 51.30822 -2.14893 32410 ft 537 kts 253°
2026-04-22 23:15 51.29674 -2.20478 32491 ft 505 kts 253°
2026-04-22 23:15 51.28629 -2.25690 32532 ft 497 kts 254°
2026-04-22 23:15 51.26604 -2.36195 32541 ft 495 kts 255°
2026-04-22 23:16 51.24644 -2.46780 32544 ft 495 kts 255°
2026-04-22 23:16 51.22741 -2.57154 32544 ft 483 kts 255°
2026-04-22 23:17 51.20839 -2.67574 32543 ft 485 kts 255°
2026-04-22 23:17 51.18975 -2.77780 32544 ft 481 kts 255°
2026-04-22 23:18 51.17051 -2.87952 32526 ft 475 kts 254°
2026-04-22 23:18 51.15040 -2.97895 32531 ft 474 kts 252°
2026-04-22 23:19 51.12959 -3.07860 32532 ft 477 kts 252°
2026-04-22 23:19 51.10930 -3.17820 32536 ft 475 kts 253°
2026-04-22 23:20 51.08906 -3.27823 32532 ft 474 kts 253°
2026-04-22 23:20 51.06116 -3.37228 32582 ft 477 kts 227°
2026-04-22 23:21 51.03492 -3.40486 32614 ft 484 kts 208°
2026-04-22 23:21 51.00446 -3.40589 32955 ft 457 kts 126°
2026-04-22 23:21 51.00645 -3.36111 32654 ft 465 kts 60°
2026-04-22 23:21 51.03034 -3.31811 32649 ft 570 kts 40°
2026-04-22 23:22 51.06006 -3.27389 32668 ft 599 kts 44°
2026-04-22 23:22 51.09016 -3.22380 32686 ft 658 kts 48°
2026-04-22 23:22 51.11939 -3.16329 32694 ft 721 kts 56°
2026-04-22 23:22 51.14591 -3.09063 32682 ft 796 kts 63°
2026-04-22 23:23 51.17376 -3.01119 32654 ft 831 kts 58°
2026-04-22 23:23 51.20475 -2.93294 32656 ft 837 kts 56°
2026-04-22 23:23 51.26895 -2.77745 32650 ft 841 kts 55°
2026-04-22 23:24 51.30163 -2.69903 32647 ft 852 kts 55°
2026-04-22 23:24 51.33462 -2.61949 32815 ft 863 kts 54°
2026-04-22 23:24 51.36730 -2.53994 32680 ft 875 kts 56°
2026-04-22 23:24 51.39578 -2.45303 32693 ft 886 kts 66°
2026-04-22 23:25 51.41384 -2.35885 32723 ft 875 kts 77°
2026-04-22 23:25 51.42088 -2.26478 32748 ft 838 kts 86°
2026-04-22 23:25 51.42282 -2.16673 32665 ft 923 kts 87°
2026-04-22 23:25 51.42663 -2.05907 32679 ft 1000 kts 84°
2026-04-22 23:26 51.43652 -1.87190 32684 ft 1006 kts 83°
2026-04-22 23:26 51.44850 -1.66323 32639 ft 940 kts 83°
2026-04-22 23:27 51.45421 -1.56212 32694 ft 887 kts 83°
2026-04-22 23:27 51.45955 -1.46579 32668 ft 844 kts 83°
2026-04-22 23:27 51.46456 -1.37402 32668 ft 810 kts 83°
2026-04-22 23:27 51.46933 -1.28536 32678 ft 792 kts 83°
2026-04-22 23:28 51.47402 -1.19779 32679 ft 779 kts 83°
2026-04-22 23:28 51.47856 -1.11220 32689 ft 752 kts 83°
2026-04-22 23:28 51.48257 -1.03342 32674 ft 664 kts 83°
2026-04-22 23:28 51.48634 -0.96289 32676 ft 633 kts 82°
2026-04-22 23:29 51.49106 -0.89018 32703 ft 695 kts 81°
2026-04-22 23:29 51.49685 -0.80935 32713 ft 766 kts 81°
2026-04-22 23:29 51.50354 -0.72068 32695 ft 812 kts 81°
2026-04-22 23:29 51.51049 -0.62934 32725 ft 819 kts 81°
2026-04-22 23:30 51.52897 -0.44996 32730 ft 819 kts 76°
2026-04-22 23:30 51.55121 -0.26990 33488 ft 825 kts 76°
2026-04-22 23:31 51.56265 -0.17937 34280 ft 832 kts 76°
2026-04-22 23:31 51.57410 -0.08924 34629 ft 835 kts 76°
2026-04-22 23:31 51.58575 0.00231 34761 ft 836 kts 76°
2026-04-22 23:31 51.59828 0.09346 34786 ft 834 kts 71°
2026-04-22 23:32 51.64541 0.25959 34840 ft 825 kts 58°
2026-04-22 23:32 51.70389 0.41848 34827 ft 821 kts 53°
2026-04-22 23:33 51.76884 0.56930 34801 ft 818 kts 51°
2026-04-22 23:33 51.84656 0.69902 34878 ft 805 kts 33°
2026-04-22 23:34 51.94208 0.77772 34896 ft 683 kts
2026-04-22 23:34 51.97569 0.74536 33984 ft 635 kts 292°
2026-04-22 23:34 51.99094 0.67736 34436 ft 618 kts 291°
2026-04-22 23:35 52.00310 0.61324 34671 ft 592 kts 288°
2026-04-22 23:35 52.01719 0.55026 34809 ft 599 kts 297°
2026-04-22 23:35 52.03490 0.49081 34788 ft 542 kts 299°
2026-04-22 23:35 52.05098 0.44016 34790 ft 499 kts 300°
2026-04-22 23:36 52.06742 0.39016 34808 ft 510 kts 301°
2026-04-22 23:36 52.08457 0.33878 34824 ft 511 kts 301°
2026-04-22 23:36 52.10163 0.28821 34822 ft 494 kts 302°
2026-04-22 23:36 52.11793 0.24229 34822 ft 459 kts 303°
2026-04-22 23:37 52.15096 0.15248 34824 ft 462 kts 302°
2026-04-22 23:37 52.18220 0.06212 34833 ft 460 kts 301°
2026-04-22 23:38 52.21301 -0.02761 34826 ft 454 kts 302°
2026-04-22 23:38 52.24501 -0.11697 34837 ft 456 kts 302°
2026-04-22 23:39 52.27717 -0.20585 34841 ft 450 kts 303°
2026-04-22 23:39 52.30890 -0.29432 34837 ft 453 kts 301°
2026-04-22 23:40 52.32390 -0.33889 34833 ft 442 kts 301°
2026-04-22 23:40 52.33840 -0.38357 34846 ft 448 kts 300°
2026-04-22 23:40 52.35277 -0.42788 34841 ft 434 kts 300°
2026-04-22 23:40 52.36709 -0.47163 34841 ft 440 kts 301°
2026-04-22 23:41 52.39385 -0.55974 34833 ft 420 kts 292°
2026-04-22 23:41 52.40284 -0.60386 34829 ft 405 kts 294°
2026-04-22 23:41 52.41420 -0.64788 34837 ft 433 kts 297°
2026-04-22 23:42 52.44047 -0.73632 34836 ft 439 kts 299°
2026-04-22 23:42 52.46788 -0.82432 34846 ft 455 kts 299°
2026-04-22 23:43 52.48437 -0.87601 34805 ft 548 kts 300°
2026-04-22 23:43 52.50996 -0.91796 31361 ft 534 kts 326°
2026-04-22 23:43 52.54188 -0.95367 26153 ft 572 kts 326°
2026-04-22 23:43 52.56377 -0.97759 22942 ft 558 kts 340°
2026-04-22 23:44 52.60294 -0.97812 21682 ft 588 kts 19°
2026-04-22 23:44 52.64100 -0.95208 21742 ft 613 kts 24°
2026-04-22 23:44 52.68149 -0.92338 21848 ft 658 kts 22°
2026-04-22 23:44 52.72130 -0.89716 21836 ft 569 kts 21°
2026-04-22 23:45 52.75865 -0.87350 21829 ft 577 kts 21°
2026-04-22 23:45 52.79636 -0.85015 21840 ft 581 kts 20°
2026-04-22 23:45 52.84455 -0.81012 21894 ft 584 kts 37°
2026-04-22 23:45 52.86557 -0.78199 21904 ft 585 kts 41°
2026-04-22 23:46 52.89570 -0.73655 21324 ft 584 kts 44°
2026-04-22 23:46 52.92491 -0.69002 20569 ft 581 kts 45°
2026-04-22 23:46 52.95386 -0.64323 19821 ft 579 kts 45°
2026-04-22 23:46 52.98254 -0.59662 19101 ft 577 kts 45°
2026-04-22 23:47 53.01075 -0.54981 18233 ft 571 kts 49°
2026-04-22 23:47 53.02820 -0.49637 15313 ft 503 kts 73°
2026-04-22 23:47 53.03897 -0.44265 12576 ft 476 kts 73°
2026-04-22 23:47 53.04824 -0.39699 7933 ft 209 kts 72°
2026-04-22 23:48 53.05664 -0.35506 4553 ft 396 kts 75°
2026-04-22 23:48 53.06432 -0.31370 3563 ft 339 kts 74°
2026-04-22 23:48 53.07074 -0.28115 2619 ft 260 kts 74°
2026-04-22 23:48 53.07560 -0.25615 1964 ft 203 kts 73°
2026-04-22 23:49 53.07945 -0.23628 1461 ft 161 kts 73°
2026-04-22 23:49 53.08247 -0.22006 986 ft 140 kts 71°
2026-04-22 23:49 53.08545 -0.20501 586 ft 136 kts 71°
2026-04-22 23:49 53.08844 -0.19001 215 ft 129 kts 70°
2026-04-22 23:50 53.09074 -0.17849 26 ft 57 kts 75°
2026-04-22 23:50 53.09033 -0.17404 27 ft 35 kts 113°
2026-04-22 23:50 53.08942 -0.17075 27 ft 18 kts 128°
2026-04-22 23:50 53.08851 -0.17104 27 ft 15 kts 203°
2026-04-22 23:51 53.08809 -0.17047 27 ft 15 kts 115°
2026-04-22 23:51 53.08799 -0.16947 27 ft 2 kts 330°
2026-04-22 23:51 53.08799 -0.16962 27 ft 0 kts 242°
2026-04-23 00:01 53.09585 -0.17184 1998 ft 0 kts 329°
2026-04-23 00:01 53.09591 -0.17480 27 ft 0 kts 198°